Find Starlink 31581

NORAD ID: 59474 Int'l Des: 2024-068 Owner: SPXS Country: US Constellation: starlink operational
LEOCIRCULAR

Live-Position

3D-Globus wird geladen...

Über Starlink 31581

Beschreibung wird geladen...

Nächste Überflüge

Passes for default location (London). Set your location on the main map for personalized predictions.

Höhenverlauf

Loading altitude history...

Zweizeiliger Elementsatz

1 59474U 24068V 26124.26038626 .00001384 00000-0 59820-4 0 9991
2 59474 43.0035 73.5655 0001470 274.5598 85.5086 15.27576484117100
Epoch: 4. Mai 2026 • Age: 20 hours

Aktueller Status

Höhe 483.7 km
Geschwindigkeit 7.62 km/s
Subsatellitenpunkt -5.55°S, 3.43°E
Startdatum 10. Apr. 2024
Alter 2 years
Typ internet

Technische Details

Klassifizierung Payload
Masse 730.00 kg
Trockenmasse 700.00 kg
Gesamtmasse 730.00 kg
Länge 0.30 m
Durchmesser 4.10 m
Spannweite 29.00 m
Form Box + pan
Hersteller SPXS
Bus-Typ Starlink V2M
Phasenstatus In Orbit
Besitzer/Staat SPXS/US

Most Searched